Orbital Elements at Epoch 2459200.5 (2020-Dec-17.0) TDB
Reference: JPL 36 (heliocentric ecliptic J2000)
Element | Value | Uncertainty (1-sigma) | Units |
e | .06644651783774029 | 1.8317e-08 | |
a | 3.008061248741472 | 1.4994e-08 | au |
q | 2.808186053319957 | 5.7609e-08 | au |
i | 9.006924368853623 | 3.7922e-07 | deg |
node | 236.8563739560788 | 4.8148e-06 | deg |
peri | 218.8614918464045 | 1.7765e-05 | deg |
M | 234.0103284743888 | 1.9662e-05 | deg |
tp | 2459867.400252934023 (2022-Oct-14.90025293) | 0.00010594 | TDB |
period | 1905.585498787844 5.22 | 1.4248e-05 3.901e-08 | d yr |
n | .1889183142026419 | 1.4125e-09 | deg/d |
Q | 3.207936444162987 | 1.599e-08 | au |
|
| | Orbit Determination Parameters
Additional Information
|